[[{"header":{"parameterUnit":"m.s-1","parameterCategory":1,"la1":30.2991,"la2":30.254,"lo1":-89.0895,"lo2":-89.0444,"dy":0.0017,"dx":0.0017,"nx":28,"ny":28,"refTime":"2025-07-26T03:00:00:Z","depth":0,"parameterNumber":2,"parameterNumberName":"U-component_of_WINDS"},"data":[0,0,0,0,0,0,0,0,0,0,0,0,0,0,0,0,0,0,0,0,0,0,0,0,0,0,0,0,0,0,0,0,0,0,0,0,0,0,0,0,0,0,0,0,0,0,0,0,0,0,0,0,0,0,0,0,0,0,-0.9339,-0.934,0,-0.9429,-0.943,-0.9431,-0.9478,-0.9478,-0.9478,-0.9478,-0.9571,-0.9574,-0.9576,0,0,0,0,0,0,0,0,0,0,0,0,0,-0.921,-0.9212,-0.9339,-0.934,-0.9341,-0.9429,-0.943,-0.9431,-0.9478,-0.9478,-0.9478,-0.9478,-0.957,-0.9573,-0.9576,0,0,0,0,0,0,0,0,0,0,0,0,0,-0.928,-0.9213,-0.9339,-0.9375,-0.9379,-0.9428,-0.943,-0.9431,-0.9478,-0.9478,-0.9478,-0.9478,-0.957,-0.9573,-0.9577,-0.9597,0,0,-0.9588,-0.9589,0,0,0,0,0,0,0,0,-0.9276,-0.9284,-0.9369,-0.9373,-0.9377,-0.9442,-0.9419,-0.9487,-0.9478,-0.944,-0.9478,-0.9478,-0.9528,-0.9535,-0.9552,-0.9602,-0.9606,-0.9588,-0.959,-0.9592,-0.9593,0,0,0,0,0,0,0,-0.9271,-0.9281,-0.9375,-0.937,-0.9375,-0.9387,-0.9397,-0.9432,-0.9483,-0.9444,-0.9447,-0.9457,-0.9531,-0.9548,-0.9555,-0.9607,-0.9588,-0.9591,-0.9594,-0.9595,-0.9679,-0.9679,0,0,0,0,0,0,-0.926,-0.9276,-0.9372,-0.9377,-0.9326,-0.939,-0.9401,-0.9421,-0.9482,-0.9492,-0.9457,-0.9459,-0.9542,-0.955,-0.9558,-0.9587,-0.9592,-0.9595,-0.9597,-0.9679,-0.9679,-0.9679,0,0,0,0,0,0,-0.9257,-0.9268,-0.9368,-0.9328,-0.9342,-0.9392,-0.9414,-0.9423,-0.9441,-0.9493,-0.9502,-0.9465,-0.9543,-0.9553,-0.9587,-0.9591,-0.9597,-0.96,-0.9679,-0.9679,-0.9679,-0.9644,0,0,0,0,0,0,-0.9253,-0.9267,-0.9275,-0.9328,-0.9344,-0.9395,-0.9415,-0.9425,-0.9447,-0.945,-0.9503,-0.9512,-0.9543,-0.9582,-0.9591,-0.9596,-0.9603,-0.9679,-0.9679,-0.9679,-0.9645,-0.9643,-0.9641,0,0,0,0,0,-0.9248,-0.9261,-0.9275,-0.9286,-0.9354,-0.9395,-0.9405,-0.944,-0.9447,-0.9456,-0.9489,-0.951,-0.9589,-0.9585,-0.9596,-0.9602,-0.9679,-0.9679,-0.9679,-0.9646,-0.9644,-0.9641,0,0,0,0,0,0,-0.9208,-0.9269,-0.9284,-0.9315,-0.9349,-0.9403,-0.9415,-0.9436,-0.947,-0.9472,-0.9515,-0.9526,-0.9557,-0.9583,-0.9577,-0.9626,-0.9636,-0.9638,-0.9607,-0.9605,-0.9603,-0.9597,-0.9606,0,0,0,0,0,-0.9202,-0.923,-0.9282,-0.9304,-0.9321,-0.9365,-0.9384,-0.9408,-0.9446,-0.9461,-0.9497,-0.9533,-0.9566,-0.9587,-0.962,-0.9649,-0.9662,-0.9659,-0.9657,-0.9655,-0.9657,-0.9675,-0.9674,-0.968,-0.968,-0.968,0,0,-0.9192,-0.9228,-0.9243,-0.9297,-0.9326,-0.9355,-0.9377,-0.9406,-0.9427,-0.9466,-0.95,-0.9528,-0.9572,-0.9603,-0.9619,-0.9626,-0.9658,-0.9655,-0.9653,-0.9656,-0.9675,-0.9674,-0.9673,-0.968,-0.968,-0.968,0,0,-0.9186,-0.9217,-0.9238,-0.9268,-0.9312,-0.9341,-0.9347,-0.9397,-0.9417,-0.9452,-0.9482,-0.9508,-0.9564,-0.9594,-0.9617,-0.9623,-0.9644,-0.9632,-0.9622,-0.9639,-0.9638,-0.9638,-0.9641,-0.9641,-0.9634,-0.9634,-0.9634,0,-0.9168,-0.9211,-0.9247,-0.9275,-0.9298,-0.9333,-0.9356,-0.9383,-0.9436,-0.9451,-0.9458,-0.9529,-0.9561,-0.96,-0.9602,-0.9619,-0.9626,-0.9627,-0.9635,-0.9636,-0.9636,-0.9639,-0.964,-0.9632,-0.9632,-0.9632,-0.9633,0,-0.9186,-0.9215,-0.9228,-0.9277,-0.9302,-0.9327,-0.9368,-0.9388,-0.941,-0.9439,-0.9475,-0.9514,-0.9556,-0.9568,-0.959,-0.961,-0.9613,-0.9627,-0.9639,-0.9633,-0.9637,-0.9638,-0.963,-0.963,-0.9631,-0.9631,0,0,-0.9158,-0.9227,-0.9232,-0.9255,-0.9306,-0.933,-0.9357,-0.9398,-0.9415,-0.945,-0.9474,-0.9521,-0.9534,-0.9559,-0.9585,-0.96,-0.9603,-0.9612,-0.9614,-0.9609,-0.9629,-0.9619,-0.9619,-0.9617,-0.9617,-0.9618,-0.9625,0,-0.9161,-0.9209,-0.9243,-0.928,-0.9308,-0.9342,-0.9365,-0.94,-0.9427,-0.9456,-0.9487,-0.9519,-0.9534,-0.9549,-0.9565,-0.9599,-0.9607,-0.9599,-0.964,-0.9641,-0.9629,-0.9621,-0.961,-0.9616,-0.9627,-0.9627,-0.9628,0,-0.917,-0.9204,-0.9243,-0.9292,-0.9305,-0.9325,-0.9365,-0.9392,-0.9432,-0.9451,-0.9479,-0.9506,-0.9536,-0.9545,-0.9588,-0.9581,-0.96,-0.9619,-0.962,-0.9626,-0.9634,-0.9627,-0.9619,-0.962,-0.963,-0.963,-0.963,0,-0.9147,-0.9202,-0.9233,-0.9251,-0.9309,-0.9323,-0.9347,-0.9388,-0.941,-0.9445,-0.946,-0.9499,-0.952,-0.9549,-0.9585,-0.9588,-0.9625,-0.9636,-0.9642,-0.9641,-0.9649,-0.9648,-0.9643,-0.966,-0.966,-0.966,-0.966,0,-0.9146,-0.9169,-0.9223,-0.9242,-0.9268,-0.9307,-0.9332,-0.936,-0.9396,-0.9421,-0.9453,-0.9476,-0.9522,-0.9551,-0.958,-0.9611,-0.962,-0.9637,-0.9645,-0.9635,-0.9633,-0.9648,-0.9649,-0.966,-0.966,-0.966,-0.966,0,-0.9125,-0.9162,-0.9197,-0.9249,-0.9262,-0.928,-0.9324,-0.9344,-0.9373,-0.9405,-0.9415,-0.9461,-0.9497,-0.9535,-0.9584,-0.9604,-0.9634,-0.9644,-0.962,-0.9624,-0.9628,-0.9628,-0.9634,-0.9638,-0.9651,-0.9651,-0.9651,0,-0.9123,-0.9141,-0.9194,-0.9213,-0.9237,-0.9267,-0.929,-0.9329,-0.9351,-0.9398,-0.9413,-0.9451,-0.9484,-0.9539,-0.9578,-0.9615,-0.9627,-0.9627,-0.9633,-0.9623,-0.9628,-0.9626,-0.9629,-0.9625,-0.9625,-0.9624,-0.9624,0,-0.9115,-0.9132,-0.9163,-0.9201,-0.9227,-0.9259,-0.9292,-0.9306,-0.9352,-0.9376,-0.9412,-0.9438,-0.9487,-0.9525,-0.9568,-0.9594,-0.9617,-0.9622,-0.9625,-0.9616,-0.9601,-0.961,-0.9616,-0.9622,-0.9622,-0.9622,-0.9622,-0.9622,-0.9103,-0.9121,-0.9161,-0.9195,-0.9224,-0.9254,-0.9276,-0.9307,-0.9338,-0.9382,-0.9403,-0.944,-0.948,-0.9539,-0.9565,-0.9595,-0.9602,-0.9607,-0.9608,-0.9609,-0.9607,-0.9596,-0.9603,-0.9603,-0.9603,-0.9603,-0.9603,0,-0.9098,-0.9125,-0.9156,-0.9201,-0.9228,-0.9246,-0.9284,-0.9305,-0.9337,-0.9372,-0.9404,-0.9446,-0.9483,-0.9524,-0.9563,-0.9579,-0.9591,-0.9588,-0.9588,-0.9594,-0.9598,-0.9591,-0.9578,-0.9578,-0.9578,-0.9578,-0.9578,-0.9578,-0.9098,-0.9129,-0.9151,-0.9197,-0.9225,-0.9261,-0.9281,-0.9309,-0.9337,-0.9383,-0.9414,-0.944,-0.9478,-0.952,-0.9555,-0.9566,-0.9579,-0.9574,-0.9588,-0.9591,-0.9593,-0.9595,-0.9589,-0.9576,-0.9576,-0.9582,-0.9582,-0.9582]},{"header":{"parameterUnit":"m.s-1","parameterCategory":1,"la1":30.2991,"la2":30.254,"lo1":-89.0895,"lo2":-89.0444,"dy":0.0017,"dx":0.0017,"nx":28,"ny":28,"refTime":"2025-07-26T03:00:00:Z","depth":0,"parameterNumber":3,"parameterNumberName":"V-component_of_WINDS"},"data":[0,0,0,0,0,0,0,0,0,0,0,0,0,0,0,0,0,0,0,0,0,0,0,0,0,0,0,0,0,0,0,0,0,0,0,0,0,0,0,0,0,0,0,0,0,0,0,0,0,0,0,0,0,0,0,0,0,0,5.5254,5.5255,0,5.536,5.5362,5.5363,5.5307,5.5305,5.5302,5.5299,5.5403,5.5408,5.5413,0,0,0,0,0,0,0,0,0,0,0,0,0,5.4995,5.5,5.5253,5.5255,5.5256,5.536,5.5362,5.5363,5.5308,5.5304,5.5301,5.5298,5.5401,5.5407,5.5414,0,0,0,0,0,0,0,0,0,0,0,0,0,5.5105,5.5002,5.5253,5.5241,5.5241,5.536,5.5362,5.5364,5.5309,5.5304,5.53,5.5296,5.5399,5.5407,5.5415,5.555,0,0,5.5439,5.5443,0,0,0,0,0,0,0,0,5.5099,5.5114,5.5242,5.5242,5.5243,5.5316,5.5309,5.5426,5.531,5.5283,5.5299,5.5294,5.5377,5.5387,5.5416,5.5555,5.5559,5.544,5.5445,5.5449,5.5451,0,0,0,0,0,0,0,5.5091,5.5109,5.5296,5.5244,5.5244,5.5228,5.5239,5.533,5.5352,5.5285,5.5281,5.5295,5.5376,5.5408,5.5418,5.556,5.544,5.5447,5.5452,5.5455,5.5812,5.5817,0,0,0,0,0,0,5.5085,5.5104,5.5292,5.5299,5.5159,5.5237,5.5249,5.5297,5.5351,5.5355,5.5298,5.5292,5.5396,5.5409,5.5421,5.5581,5.5449,5.5456,5.5461,5.5808,5.5813,5.5818,0,0,0,0,0,0,5.508,5.5102,5.5288,5.52,5.5223,5.5246,5.53,5.5301,5.5333,5.5361,5.5364,5.5327,5.5394,5.541,5.5518,5.5584,5.546,5.5467,5.5802,5.5809,5.5816,5.5902,0,0,0,0,0,0,5.5073,5.5101,5.5154,5.5202,5.5228,5.5385,5.5304,5.5306,5.5348,5.534,5.5389,5.5393,5.5392,5.5506,5.5526,5.5592,5.5473,5.5796,5.5805,5.5814,5.5893,5.5911,5.5926,0,0,0,0,0,5.5064,5.5173,5.5157,5.518,5.5295,5.5389,5.5403,5.5401,5.5353,5.5405,5.5424,5.5392,5.5574,5.5518,5.554,5.5609,5.5792,5.5803,5.5813,5.5886,5.5907,5.5926,0,0,0,0,0,0,5.5131,5.5179,5.5162,5.5291,5.5336,5.5379,5.5445,5.5424,5.5482,5.5473,5.5465,5.5477,5.5588,5.561,5.5547,5.5742,5.5675,5.5691,5.5723,5.5744,5.576,5.5751,5.548,0,0,0,0,0,5.5161,5.5235,5.5273,5.5383,5.5407,5.5423,5.5463,5.5458,5.5503,5.5522,5.5548,5.5592,5.5659,5.5703,5.5766,5.5897,5.5905,5.5955,5.5972,5.5985,5.5998,5.6066,5.6088,5.5852,5.5852,5.5852,0,0,5.5223,5.5259,5.5306,5.5397,5.5432,5.5507,5.5439,5.5521,5.5576,5.5534,5.5637,5.5658,5.5706,5.5826,5.588,5.5847,5.6065,5.5998,5.6009,5.6014,5.6079,5.6101,5.6121,5.5859,5.5858,5.5857,0,0,5.5374,5.541,5.5505,5.5541,5.5595,5.5604,5.5627,5.5674,5.5686,5.5791,5.576,5.5824,5.594,5.5975,5.6008,5.6172,5.6144,5.6193,5.6278,5.6344,5.6363,5.6379,5.6435,5.6456,5.6206,5.6206,5.6206,0,5.5444,5.5558,5.5556,5.564,5.568,5.5648,5.5741,5.5776,5.5847,5.5874,5.5838,5.5982,5.6012,5.6138,5.6178,5.6207,5.623,5.6186,5.6361,5.6377,5.6392,5.6445,5.6467,5.6212,5.6211,5.621,5.621,0,5.564,5.5719,5.5788,5.5859,5.5907,5.5996,5.6005,5.6053,5.6044,5.6056,5.6161,5.6197,5.6266,5.6296,5.6287,5.642,5.6398,5.6362,5.6294,5.642,5.647,5.649,5.6219,5.6217,5.6216,5.6214,0,0,5.5835,5.5904,5.5929,5.596,5.6017,5.6077,5.6163,5.6232,5.6273,5.6323,5.6393,5.6492,5.6458,5.6496,5.649,5.6549,5.6674,5.6505,5.6506,5.6533,5.682,5.6845,5.6869,5.6656,5.666,5.6663,5.6815,0,5.5988,5.6142,5.6142,5.6282,5.6353,5.6323,5.6398,5.644,5.6454,5.6515,5.6529,5.6599,5.655,5.6572,5.663,5.6646,5.6731,5.6636,5.6719,5.6722,5.6705,5.6896,5.6923,5.7065,5.6835,5.6838,5.684,0,5.6187,5.6245,5.6393,5.6438,5.6468,5.6535,5.6598,5.6657,5.6703,5.6709,5.6751,5.6736,5.6821,5.6754,5.687,5.6805,5.6839,5.6853,5.6858,5.6864,5.6787,5.6904,5.711,5.713,5.6871,5.6869,5.6867,0,5.6312,5.6427,5.6529,5.6557,5.6613,5.666,5.6685,5.6727,5.6768,5.6822,5.6848,5.6911,5.6945,5.6993,5.6995,5.6946,5.7111,5.7044,5.7116,5.7116,5.715,5.7147,5.7362,5.7176,5.7176,5.7176,5.7175,0,5.6481,5.6572,5.6586,5.6649,5.6749,5.6747,5.6846,5.6866,5.6904,5.6968,5.6946,5.7006,5.7006,5.7067,5.7069,5.7163,5.7179,5.7184,5.7183,5.7185,5.7184,5.7205,5.7195,5.7181,5.718,5.7179,5.7178,0,5.6636,5.665,5.6759,5.6803,5.6816,5.6888,5.6924,5.6983,5.6995,5.7077,5.7096,5.7115,5.7185,5.7192,5.7274,5.7275,5.7389,5.7378,5.7373,5.7371,5.7442,5.7434,5.7675,5.7706,5.7503,5.7505,5.7506,0,5.6743,5.6812,5.6864,5.6906,5.6934,5.7003,5.7045,5.7046,5.709,5.7147,5.7198,5.7267,5.7322,5.7436,5.7455,5.7517,5.7506,5.7587,5.7515,5.7515,5.7505,5.75,5.7505,5.76,5.7602,5.7604,5.7605,0,5.6929,5.6932,5.6994,5.7059,5.711,5.716,5.7207,5.7243,5.7249,5.73,5.7373,5.7415,5.7499,5.7567,5.7628,5.7651,5.7629,5.7628,5.7647,5.7649,5.7642,5.7644,5.7409,5.7622,5.762,5.7619,5.7618,5.7617,5.7061,5.7121,5.7166,5.7236,5.7271,5.7316,5.7373,5.7393,5.7454,5.7523,5.752,5.7599,5.7641,5.7721,5.7749,5.781,5.7783,5.7811,5.7818,5.7825,5.7831,5.7635,5.7821,5.7821,5.782,5.782,5.782,0,5.7244,5.7272,5.7336,5.7403,5.7457,5.7434,5.7485,5.7531,5.7602,5.7644,5.7699,5.7781,5.7847,5.7872,5.7935,5.7979,5.797,5.7995,5.7991,5.7996,5.7853,5.7829,5.8001,5.8001,5.8001,5.8001,5.8001,5.8001,5.7345,5.7444,5.7452,5.7567,5.7594,5.7673,5.7704,5.7744,5.7777,5.7871,5.7926,5.7942,5.7977,5.8042,5.8101,5.8106,5.8129,5.8158,5.8159,5.8025,5.8006,5.7989,5.7966,5.8164,5.8164,5.8297,5.8298,5.8299]}]]